Home   Weather   Charleston   Past weeks
Flag for USA

Past Weather in Charleston, West Virginia, USA — Yesterday and Last 2 Weeks

Now
42 °F

Overcast.


Feels Like: 38 °F
Forecast: 54 / 32 °F
Wind: 7 mph from North

Location: Yeager Airport

Current Time: Mar 26, 2019 at 3:05:30 am

Latest Report: Mar 26, 2019 at 1:54 am


Visibility: 10 mi

Pressure: 30.13 "Hg

Humidity: 73%

Dew Point: 34 °F

Location of CharlestonLocation

Past Weather in Charleston — Graph

°F

Charleston Temperature Yesterday

Maximum temperature yesterday: 53 °F (at 12:54 am)
Minimum temperature yesterday: 43 °F (at 11:41 pm)
Average temperature yesterday: 48 °F

High & Low Weather Summary for the Past Weeks

 TemperatureHumidityPressure
High78 °F (Mar 14, 3:54 pm)100% (Mar 25, 7:54 pm)30.49 "Hg (Mar 25, 7:54 pm)
Low24 °F (Mar 19, 7:54 am)11% (Mar 24, 2:54 pm)29.72 "Hg (Mar 15, 12:54 am)
Average46 °F53%30.14 "Hg
* Reported Mar 11 1:54 am — Mar 26 1:54 am, Charleston. Weather by CustomWeather, © 2019

Note: Actual official high and low records may vary slightly from our data, if they occured in-between our weather recording intervals... More about our weather records

Advertising

Charleston Weather History for the Previous 24 Hours

Scroll right to see more
 ConditionsComfort  
Time TempWeatherWind HumidityBarometerVisibility
1:54 am
Tue, Mar 26
42 °FOvercast.7 mph73%30.13 "Hg10 mi
12:54 am43 °FMostly cloudy.12 mph82%30.12 "Hg8 mi
11:54 pm
Mon, Mar 25
43 °FDrizzle. Low clouds.8 mph86%30.11 "Hg8 mi
11:41 pm43 °FDrizzle. Low clouds.8 mph89%30.10 "Hg8 mi
10:54 pm44 °FDrizzle. Low clouds.10 mph89%30.09 "Hg7 mi
9:54 pm45 °FDrizzle. Low clouds.8 mph93%30.06 "Hg7 mi
8:54 pm46 °FDrizzle. Fog.10 mph93%30.03 "Hg6 mi
7:54 pm47 °FLight rain. Fog.8 mph100%30.00 "Hg2 mi
7:25 pm49 °FFog.7 mph93%29.99 "Hg2 mi
7:03 pm50 °FMostly cloudy.6 mph86%29.98 "Hg9 mi
6:54 pm50 °FMore clouds than sun.7 mph86%29.98 "Hg10 mi
6:19 pm51 °FMostly cloudy.7 mph80%29.96 "Hg10 mi
5:54 pm52 °FMore clouds than sun.5 mph77%29.96 "Hg10 mi
4:54 pm53 °FOvercast.7 mph69%29.94 "Hg10 mi
3:54 pm53 °FOvercast.5 mph66%29.95 "Hg10 mi
2:54 pm52 °FOvercast.5 mph69%29.96 "Hg10 mi
1:54 pm51 °FOvercast.No wind74%29.97 "Hg10 mi
12:54 pm48 °FLight rain. Overcast.5 mph83%29.98 "Hg9 mi
11:54 am49 °FLight rain. Overcast.3 mph71%29.98 "Hg9 mi
10:54 am48 °FLight rain. Mostly cloudy.No wind71%30.00 "Hg7 mi
9:54 am48 °FMore clouds than sun.No wind71%29.98 "Hg10 mi
8:54 am46 °FMostly cloudy.No wind73%29.98 "Hg10 mi
7:54 am45 °FBroken clouds.No wind71%29.98 "Hg10 mi
6:54 am47 °FPassing clouds.No wind64%29.99 "Hg10 mi
5:54 am46 °FLight rain. Overcast.No wind63%29.97 "Hg10 mi
4:54 am46 °FPassing clouds.No wind61%29.96 "Hg10 mi
3:54 am47 °FPassing clouds.No wind54%29.99 "Hg10 mi
Weather by CustomWeather, © 2019

See weather overview